www.pogodaiklimat.ru

Погода и климат >> Архив погоды >> Германия >> Аугсбург


ПОГОДА в Аугсбург

  • Прогноз погоды в Аугсбург
  • Монитор погоды в Аугсбург

АРХИВ ПОГОДЫ в Аугсбург

Время (UTC), дата Ветер
(напр.,м/с)
 
Видим.   Явления Облачность Т
(С)
Тd
(С)
f
(%)
Тe
(С)
Тes
(С)
Комфортность P
(гПа)
Po
(гПа)
Тmin
(С)
Tmax
(С)
R
(мм)
R24
(мм)
S
(см)
22 8.06 штиль 0-1
{4}
70 км 4/0
[]
+11.5 +5.7 68 +11 +11 1025.0 968.9
23 8.06 штиль 0-1
{1}
60 км 8/0
[]
+10.0 +6.5 79 +9 +9 1025.3 968.9
00 9.06 штиль 0 50 км ясно +8.6 +5.5 81 +8 +8 1025.6 968.9
01 9.06 СЗ 1-2
{2}
45 км 1/0
[]
+8.6 +5.9 83 +8 +8 1025.5 968.8
02 9.06 С 1-1
{1}
40 км 3/0
[]
+7.4 +5.9 90 +6 +6 1025.6 968.7
03 9.06 С 1 35 км 10/0
[]
+6.9 +5.8 93 +6 +6 1025.5 968.5
04 9.06 штиль 0-1
{1}
25 км ясно +7.1 +5.8 91 +6 +6 1025.3 968.3
05 9.06 штиль 0
{1}
30 км 1/0
[]
+10.6 +6.6 76 +10 +12 1024.6 968.3
06 9.06 С 1 35 км 6/0
[]
+14.9 +8.0 63 +16 +19 1023.4 968.0 +6.3 +20.9
07 9.06 В 2-5
{5}
50 км 10/0
[]
+18.3 +8.4 52 +19 +23 1022.3 967.6
08 9.06 В 3-5
{5}
15 км 9/0
[]
+19.5 +9.9 54 +21 +26 комфорт 1021.4 967.0
09 9.06 ЮВ 7 9000 м 1/0
[]
+20.7 +8.1 44 +22 +25 комфорт 1020.9 966.7
10 9.06 В 5-7
{10}
10 км 10/0
[]
+21.1 +9.0 46 +22 +27 комфорт 1020.7 966.6
11 9.06 В 4 15 км 10/0
[]
+22.1 +10.3 47 +24 +30 комфорт 1019.8 966.0
12 9.06 ЮВ 4 19 км 10/0
[]
+23.1 +10.6 45 +25 +31 комфорт 1018.9 965.3
13 9.06 Ю 3-4
{9}
35 км 10/0
[]
+23.4 +10.6 44 +25 +32 комфорт 1018.4 964.9
14 9.06 СЗ 1 40 км 10/0
[]
+23.5 +11.9 48 +25 +33 комфорт 1018.3 964.8
15 9.06 СЗ 3 35 км 10/0
[]
+22.6 +12.6 53 +25 +29 комфорт 1018.3 964.7
16 9.06 З 6-8
{8}
35 км в посл. час дождь {морось} 9/0
[]
+20.6 +11.8 57 +22 +24 комфорт 1018.8 964.8
17 9.06 З 6 23 км в посл. час дождь {морось} 10/0 2000 м
[]
+19.7 +11.6 60 +21 +21 комфорт 1018.8 964.6
18 9.06 З 3 45 км {дождь, морось} 10/0
[]
+18.5 +12.2 67 +19 +19 1018.9 964.5 +15.0 +24.3 0.0
19 9.06 З 2 55 км 10/0
[]
+17.4 +12.2 72 +18 +18 1018.6 964.0
20 9.06 Ю 2 50 км 10/0
[]
+16.3 +13.0 81 +16 +16 1018.5 963.8
21 9.06 ЮЗ 1 45 км в посл. час дождь 10/0
[]
+16.4 +12.3 77 +17 +17 1017.9 963.2 0.0
22 9.06 С 2 35 км 10/0
[]
+14.5 +12.4 87 +14 +14 1018.3 963.2
23 9.06 С 1 25 км 10/0
[]
+13.4 +12.3 93 +14 +14 1018.2 962.9
00 10.06 В 1 17 км {дождь} 10/0
[]
+12.2 +11.5 95 +12 +12 1017.4 961.9
01 10.06 СЗ 1-1
{2}
7000 м дымка 10/0
[]
+11.9 +11.3 96 +12 +12 1016.9 961.4
02 10.06 З 1 12 км 10/0
[]
+12.7 +12.1 96 +13 +13 1016.5 961.2
03 10.06 В 4 4000 м дождь 9/0 2000 м
[]
+13.4 +12.7 96 +12 +12 1015.1 960.0 0.3
04 10.06 ЮВ 2 11 км слаб. дождь {морось} 10/0
[]
+14.0 +13.0 94 +13 +13 1015.8 960.8
05 10.06 СЗ 2 14 км в посл. час дождь 10/0
[]
+13.8 +12.8 94 +13 +14 1015.9 960.8
06 10.06 ЮЗ 2 14 км {дождь, морось} 10/0
[]
+14.6 +13.2 91 +14 +16 1016.3 961.4 +11.8 +18.6 0.6
07 10.06 Ю 2 16 км в посл. час дождь {морось} 9/0
[]
+15.0 +13.6 91 +15 +19 1016.2 961.4
08 10.06 СЗ 1 18 км в посл. час дождь {морось} 10/10 1500 м
[]
+15.4 +13.8 90 +16 +16 1014.9 960.2
09 10.06 СЗ 2 17 км {дождь, морось} 9/9 240 м
[]
+17.1 +14.2 83 +17 +19 1015.1 960.7 0.1
10 10.06 СЗ 2 15 км 9/9 400 м
[]
+18.0 +14.7 81 +19 +20 1014.4 960.2
11 10.06 С 1-3
{4}
19 км 3/3 500 м
[]
+19.4 +13.9 70 +22 +37 комфорт 1013.5 959.6
12 10.06 С 1-2
{5}
19 км {дождь, морось} ясно +20.8 +14.8 69 +25 +46 комфорт 1012.0 958.4
13 10.06 С 2-4
{5}
11 км 3/3 800 м
[]
+22.2 +15.2 65 +26 +37 душно 1010.8 957.6
14 10.06 С 4-6
{6}
6000 м дым ясно +23.0 +15.8 64 +27 +36 душно 1009.5 956.5
15 10.06 СЗ 6 14 км 10/10 1140 м
[]
+21.2 +13.9 63 +24 +24 комфорт 1009.8 956.4
16 10.06 С 4 1000 м сильн. дождь 10/10 870 м
[]
+16.9 +14.1 84 +16 +16 1011.5 957.3
17 10.06 СЗ 3 29 км в посл. час дождь {морось} 10/0
[]
+16.8 +15.1 90 +17 +18 1011.6 957.4
18 10.06 СЗ 3 35 км в посл. час дождь {морось} 10/0
[]
+17.3 +14.9 86 +17 +18 1011.0 956.9 +14.4 +23.2 3
19 10.06 З 3 40 км 10/0
[]
+16.6 +14.1 85 +16 +16 1011.9 957.6
20 10.06 З 2 19 км 9/9 1500 м
[]
+15.9 +14.8 93 +16 +16 1011.7 957.3
21 10.06 ЮЗ 2 8000 м 8/8 210 м
[]
+14.5 +13.8 96 +14 +14 1011.0 956.3
22 10.06 СЗ 1-2
{2}
10 км 4/0
[]
+14.1 +13.6 97 +14 +14 1010.5 955.8
23 10.06 СВ 1-2
{2}
6000 м в посл. час туман {дымка} 9/9 1260 м
[]
+14.5 +14.1 97 +15 +15 1011.2 956.5
00 11.06 С 2 8000 м {туман, дымка} 9/9 300 м
[]
+14.8 +14.1 96 +14 +14 1011.6 957.0
01 11.06 З 1 7000 м дымка 9/9 180 м
[]
+14.9 +14.0 94 +15 +15 1011.0 956.4
02 11.06 З 3 6000 м дымка 10/10 270 м
[]
+15.0 +14.2 95 +14 +14 1011.1 956.5
03 11.06 З 6 1200 м сильн. дождь {морось} 10/10 210 м
[]
+14.5 +14.0 97 +13 +13 1012.2 957.5 0.9
04 11.06 СЗ 5 3200 м слаб. морось с дождем 10/10 180 м
[]
+13.5 +12.7 95 +11 +11 1013.5 958.5
05 11.06 СВ 2 40 км в посл. час дождь {морось} 10/10 300 м
[]
+12.9 +11.5 91 +12 +12 1012.6 957.5
06 11.06 СВ 5 8000 м {дождь, морось} ясно +14.4 +12.4 88 +13 +15 1011.2 956.5 +12.7 +17.3 4
07 11.06 В 3 40 км 8/8 300 м
[]
+14.8 +11.9 83 +14 +15 1011.5 956.8
08 11.06 В 3-5
{5}
12 км 9/9 450 м
[]
+17.0 +13.3 79 +17 +18 1010.6 956.4
09 11.06 В 5 5000 м дым 4/4 480 м
[]
+17.3 +13.1 76 +17 +21 1009.8 955.7
10 11.06 В 3-5
{8}
10 км 10/10 570 м
[]
+17.2 +13.4 78 +17 +17 1009.6 955.5
11 11.06 СВ 3 10 км 10/10 630 м
[]
+18.1 +13.9 76 +18 +18 1009.0 955.1
12 11.06 СВ 2 17 км 10/10 630 м
[]
+18.9 +14.7 77 +21 +21 комфорт 1008.5 954.8
13 11.06 С 3-4
{5}
12 км 9/9 800 м
[]
+19.7 +14.7 73 +22 +23 комфорт 1007.9 954.4
14 11.06 С 3 14 км 9/9 840 м
[]
+20.5 +14.9 70 +24 +25 комфорт 1007.5 954.1
15 11.06 СЗ 4 7000 м дым 9/9 870 м
[]
+20.0 +15.4 75 +22 +23 комфорт 1007.5 954.1
16 11.06 СЗ 5-7
{7}
9000 м 10/10 960 м
[]
+19.0 +15.1 78 +20 +20 1007.8 954.2
17 11.06 СЗ 4-6
{7}
23 км 10/10 870 м
[]
+18.8 +14.4 76 +20 +20 1008.5 954.8
18 11.06 СЗ 4 20 км 9/9 1000 м
[]
+18.3 +14.3 77 +19 +19 1009.2 955.3 +14.4 +21.6
19 11.06 СЗ 3 25 км 10/0
[]
+17.2 +14.1 82 +17 +17 1009.2 955.1
20 11.06 СЗ 3 25 км 10/0
[]
+16.4 +14.0 86 +16 +16 1009.5 955.3
21 11.06 ЮВ 1 14 км 10/0
[]
+14.9 +13.9 94 +15 +15 1009.5 955.0
22 11.06 З 4 18 км 9/9 900 м
[]
+15.5 +14.1 91 +14 +14 1009.9 955.5
23 11.06 З 2 14 км 10/0
[]
+14.8 +13.7 93 +14 +14 1009.9 955.4
00 12.06 Ю 1 6000 м в посл. час дождь {морось} 10/0
[]
+14.2 +13.7 97 +14 +14 1009.3 954.7 0.0
01 12.06 В 1 4700 м в посл. час дождь 9/0
[]
+13.8 +13.4 97 +14 +14 1008.7 954.0
02 12.06 СЗ 2 7000 м дымка 10/0
[]
+13.8 +13.4 97 +13 +13 1008.1 953.5
03 12.06 С 2 3300 м дымка {дождь} 5/0
[]
+12.9 +12.4 97 +12 +12 1008.0 953.2 0.0
04 12.06 В 2 4000 м дымка 5/5 700 м
[]
+12.7 +12.3 97 +12 +12 1007.7 952.9
05 12.06 СЗ 2 3800 м дымка 10/0
[]
+13.2 +12.5 96 +12 +13 1007.2 952.5
06 12.06 З 2 4200 м дымка {дождь} ясно +14.1 +13.4 96 +13 +17 1007.1 952.6 +12.3 +18.3 0.0
07 12.06 СЗ 2-2
{4}
8000 м 10/10 210 м
[]
+15.5 +13.6 88 +15 +15 1006.7 952.5
08 12.06 З 3-4
{4}
9000 м 10/10 240 м
[]
+16.0 +14.2 89 +16 +16 1006.8 952.7
09 12.06 З 3 10 км 9/9 300 м
[]
+17.1 +14.8 86 +17 +18 1007.4 953.4
10 12.06 З 6-10
{10}
12 км в посл. час морось 9/9 400 м
[]
+17.4 +14.5 83 +17 +17 1008.4 954.4
11 12.06 З 7-10
{10}
13 км слаб. морось {дождь} 10/10 330 м
[]
+15.7 +13.6 87 +14 +14 1010.0 955.6
12 12.06 СЗ 6 13 км слаб. дождь {морось} 10/10 360 м
[]
+15.1 +12.6 85 +13 +13 1011.2 956.6 0.0
13 12.06 СЗ 5-9
{9}
10 км в посл. час дождь {морось} 9/9 420 м
[]
+14.9 +12.4 85 +13 +14 1012.0 957.3
14 12.06 СЗ 4 18 км в посл. час дождь 9/9 420 м
[]
+14.6 +12.1 85 +13 +14 1012.6 957.8
15 12.06 СЗ 5 6000 м в посл. час дождь {морось} 9/9 500 м
[]
+15.7 +11.4 76 +15 +15 1012.5 957.9 0.2
16 12.06 СЗ 3 45 км в посл. час дождь {морось} 10/10 570 м
[]
+14.9 +11.0 77 +14 +14 1012.6 957.9
17 12.06 С 2-3
{4}
35 км в посл. час дождь {морось} 6/0
[]
+14.9 +11.4 80 +15 +16 1012.5 957.8
18 12.06 СВ 2 45 км {дождь, морось} 9/0
[]
+14.1 +11.3 83 +14 +14 1013.0 958.1 +14.1 +18.2 0.0
19 12.06 СВ 2 45 км 10/10 720 м
[]
+13.7 +11.5 87 +13 +13 1013.8 958.8
20 12.06 В 2 35 км в посл. час дождь {морось} 10/10 800 м
[]
+12.9 +11.5 91 +12 +12 1014.2 959.0
21 12.06 В 2 25 км слаб. дождь {морось} 9/0
[]
+11.7 +10.8 94 +10 +10 1014.8 959.4 0.0
22 12.06 В 1 24 км в посл. час дождь {морось} 10/10 1500 м
[]
+11.8 +10.6 92 +12 +12 1015.0 959.6
23 12.06 С 1-2
{2}
15 км 10/10 1500 м
[]
+12.2 +11.6 96 +12 +12 1015.5 960.1
00 13.06 штиль 0 18 км {дождь, морось} 10/10 1500 м
[]
+12.5 +11.6 94 +12 +12 1015.4 960.1 0.0
01 13.06 СЗ 1-1
{1}
11 км 10/10 1500 м
[]
+12.6 +11.7 94 +13 +13 1015.2 959.9
02 13.06 В 1-2
{2}
11 км 10/10 1500 м
[]
+12.3 +11.7 96 +12 +12 1015.2 959.9
03 13.06 СЗ 1 7000 м дымка 10/10 1500 м
[]
+12.6 +11.8 95 +13 +13 1015.3 960.0
04 13.06 ЮВ 2-2
{2}
6000 м дымка 10/0 2000 м
[]
+12.6 +12.0 96 +12 +12 1015.6 960.3
05 13.06 СВ 1-1
{2}
7000 м дымка 9/0 2000 м
[]
+13.0 +12.3 96 +13 +14 1015.9 960.7
06 13.06 ЮВ 2 13 км ясно +15.8 +11.5 76 +16 +20 1015.5 960.8 +11.5 +16.0 0.0
07 13.06 ЮВ 1-2
{2}
21 км ясно +17.7 +10.9 64 +19 +27 1015.0 960.7
08 13.06 В 2-3
{3}
30 км ясно +18.4 +11.6 65 +19 +30 1014.7 960.5
09 13.06 В 1 27 км ясно +19.4 +9.8 54 +21 +38 комфорт 1014.2 960.2
10 13.06 СВ 3-6
{6}
22 км ясно +19.8 +8.5 48 +21 +35 комфорт 1014.1 960.1
11 13.06 С 3-4
{6}
55 км ясно +20.9 +10.3 51 +23 +38 комфорт 1013.7 960.0
12 13.06 С 2-4
{6}
30 км ясно +21.7 +10.6 49 +23 +41 комфорт 1013.4 959.8
13 13.06 СВ 1-3
{4}
45 км ясно +22.8 +11.3 48 +25 +44 комфорт 1012.9 959.6
14 13.06 З 1-4
{4}
30 км ясно +23.4 +9.7 42 +25 +40 комфорт 1012.8 959.6
15 13.06 С 2-3
{4}
40 км ясно +23.1 +9.2 41 +25 +34 комфорт 1012.8 959.5
16 13.06 С 2-4
{5}
35 км ясно +23.0 +9.4 42 +25 +30 комфорт 1012.7 959.4
17 13.06 С 3-4
{4}
45 км ясно +22.8 +10.0 44 +25 +27 комфорт 1013.0 959.6
18 13.06 С 2 35 км ясно +22.4 +9.9 45 +24 +25 комфорт 1013.6 960.1 +15.6 +23.9
19 13.06 С 2-3
{3}
65 км ясно +20.1 +10.7 55 +22 +22 комфорт 1014.7 960.8
20 13.06 В 2-2
{2}
50 км ясно +15.5 +11.9 79 +15 +15 1016.2 961.4
21 13.06 ЮВ 1-2
{3}
55 км ясно +14.0 +11.0 82 +14 +14 1016.7 961.6
22 13.06 В 1-1
{2}
45 км ясно +12.3 +10.1 86 +12 +12 1017.5 962.0
23 13.06 ЮВ 2-2
{2}
45 км ясно +11.0 +9.1 88 +10 +10 1018.0 962.2
00 14.06 ЮВ 1 45 км ясно +10.7 +9.0 89 +10 +10 1018.1 962.3
01 14.06 ЮВ 2-2
{2}
30 км ясно +10.8 +9.4 91 +9 +9 1018.2 962.4
02 14.06 В 1-2
{2}
35 км ясно +9.5 +8.3 92 +9 +9 1018.4 962.3
03 14.06 штиль 0-1
{2}
30 км ясно +9.5 +8.6 94 +9 +9 1018.3 962.2
04 14.06 ЮВ 1-1
{2}
21 км ясно +9.4 +8.3 93 +9 +9 1018.4 962.3
05 14.06 З 1-1
{1}
22 км ясно +13.4 +10.8 84 +14 +15 1017.3 962.0
06 14.06 В 1 19 км ясно +18.3 +13.1 72 +20 +24 1016.2 961.9 +8.8 +22.2
07 14.06 ЮВ 4-7
{7}
6000 м дым 1/0
[]
+20.6 +13.3 63 +23 +28 комфорт 1015.7 961.9
08 14.06 ЮВ 5-8
{8}
10 км ясно +22.7 +13.8 57 +26 +32 жарко 1015.1 961.7
09 14.06 ЮВ 6 9000 м 4/0
[]
+24.2 +14.6 55 +27 +31 жарко 1014.6 961.5
10 14.06 В 5-7
{8}
10 км ясно +25.2 +14.7 52 +28 +37 жарко 1014.5 961.6
11 14.06 В 4-9
{9}
11 км ясно +26.3 +15.9 53 +30 +42 душно 1014.3 961.6
12 14.06 В 2-6
{9}
23 км ясно +28.0 +16.8 51 +32 +50 душно 1013.7 961.3
13 14.06 С 3 15 км 9/0
[]
+27.0 +15.0 48 +30 +37 душно 1013.5 960.9
14 14.06 СВ 2-4
{4}
17 км 10/0
[]
+27.3 +15.6 49 +30 +37 душно 1012.7 960.2
15 14.06 С 3 16 км 10/0
[]
+28.1 +14.7 44 +31 +34 душно 1012.1 959.8
16 14.06 СВ 4 15 км 10/0
[]
+27.1 +16.0 51 +30 +32 душно 1011.5 959.1
17 14.06 СВ 3 26 км 10/0
[]
+26.4 +14.9 49 +29 +30 жарко 1011.1 958.6
18 14.06 СВ 4 28 км 10/0
[]
+25.0 +16.0 57 +28 +28 жарко 1010.7 958.0 +18.3 +28.6
19 14.06 С 2 27 км 10/0
[]
+23.6 +16.0 62 +27 +27 жарко 1010.4 957.4
20 14.06 СЗ 3 30 км 10/0
[]
+22.8 +15.5 63 +27 +27 душно 1010.5 957.4
21 14.06 СЗ 2 30 км 9/0
[]
+21.5 +15.1 67 +25 +25 комфорт 1010.2 956.9
22 14.06 З 1 21 км 5/0
[]
+17.8 +15.0 84 +19 +19 1010.5 956.5
23 14.06 З 2 21 км 10/0
[]
+18.6 +15.2 81 +20 +20 1010.3 956.5
00 15.06 ЮВ 1 19 км 10/0
[]
+17.4 +15.3 87 +18 +18 1010.5 956.4
01 15.06 ЮВ 2 16 км 10/0
[]
+16.8 +15.2 90 +17 +17 1010.4 956.2
02 15.06 Ю 2 18 км 5/0
[]
+17.4 +14.8 85 +18 +18 1009.5 955.5
03 15.06 ЮВ 3 12 км 5/0
[]
+16.3 +14.7 90 +16 +16 1009.2 955.0
04 15.06 Ю 3-4
{4}
15 км 4/0
[]
+16.7 +14.5 87 +16 +17 1009.5 955.3
05 15.06 СВ 2-3
{7}
13 км 6/0
[]
+18.7 +15.9 84 +20 +21 1010.1 956.3
06 15.06 З 3 24 км 10/0
[]
+22.2 +13.5 58 +25 +27 комфорт 1010.9 957.6 +16.0 +25.2
07 15.06 З 6-8
{9}
13 км ясно +22.5 +12.7 54 +25 +28 комфорт 1011.8 958.5
08 15.06 З 8-11
{11}
8000 м ясно +22.5 +13.5 57 +26 +28 жарко 1012.7 959.4
09 15.06 СЗ 6 10 км 9/0
[]
+23.0 +13.5 55 +26 +29 жарко 1013.4 960.1
10 15.06 СЗ 6 12 км 5/0
[]
+23.6 +13.6 53 +26 +31 жарко 1013.3 960.1
11 15.06 С 5-8
{10}
16 км 5/0
[]
+23.4 +13.7 54 +27 +34 душно 1013.8 960.6
12 15.06 СЗ 4 18 км 9/9 1320 м
[]
+23.2 +13.9 56 +27 +28 душно 1014.0 960.7
13 15.06 С 5 23 км 9/9 1500 м
[]
+23.5 +13.5 53 +26 +27 жарко 1013.8 960.6
14 15.06 СЗ 5 20 км 9/9 1500 м
[]
+23.5 +13.7 54 +26 +27 жарко 1013.9 960.7
15 15.06 С 5 35 км 10/10 1500 м
[]
+22.9 +12.8 53 +26 +26 жарко 1013.8 960.5
16 15.06 С 4 70 км 10/10 1440 м
[]
+21.9 +14.0 61 +25 +25 комфорт 1013.9 960.4
17 15.06 С 3 55 км в посл. час дождь {морось} 10/10 1380 м
[]
+22.0 +14.5 62 +25 +25 комфорт 1013.6 960.2
18 15.06 С 4 70 км {дождь, морось} 9/9 1500 м
[]
+21.8 +13.6 60 +25 +25 комфорт 1013.8 960.3 +21.5 +24.6 0.0
19 15.06 С 5 50 км 10/0 2000 м
[]
+20.3 +13.4 65 +22 +22 комфорт 1013.8 960.0
20 15.06 С 3 70 км 10/0
[]
+19.1 +13.1 68 +20 +20 1014.2 960.2
21 15.06 З 4 11 км дождь {морось} 9/9 1140 м
[]
+17.7 +14.0 79 +17 +17 1015.5 961.2 0.3
22 15.06 С 2 400 м град {ливн. осадки, дождь} 9/9 1500 м
[]
+16.2 +14.5 90 +16 +16 1015.5 960.9

 

Местоположение метеостанции Аугсбург (Германия): широта 48.43 долгота 10.93 высота над уровнем моря 477 м.

В архиве по умолчанию представлена погода в Аугсбург за последнюю неделю. Архивные данные за месяц целиком и за предыдущие месяцы, начиная с января 2011 года, Вы можете получить, выбрав интересующий диапазон дат из раскрывающегося списка и нажав кнопку "Ввод!".


*Определитесь, кто Вы:
робот инопланетянин человек

Внимание! Время в таблицах - всемирное. Для получения местного времени необходимо прибавить поправку, которая равна 1 ч.

Смотрите также архив погоды в соседних городах и на ближайших метеорологических станциях:

Погода на Аэродроме Lechfeld (Германия) (28 км)
Погода в Нойбурге-ан-дер-Донау (Германия) (39 км)
Погода в Ландсберге (Германия) (40 км)
Погода в Гарбурге (Германия) (42 км)
Погода в Ингольштадте (Германия) (55 км)
Погода в Мюнхене (Германия) (57 км)
Погода в Вайэнштефане (Германия) (57 км)
Погода в Мюнхен аэропорту (Германия) (63 км)
Погода в Вайсенбург-ин-Байерне (Германия) (66 км)
Погода в Альтенштадте (Германия) (67 км)

Пояснения к столбцам:

Ветер - указаны скорость ветра в м/с - средняя за 10 мин, порывы в срок и между сроками (в фигурных скобках) и направление, откуда дует ветер: С - северный, СВ - северо-восточный, В - восточный, ЮВ - юго-восточный, Ю - южный, ЮЗ - юго-западный, З - западный, СЗ - северо-западный.
Видимость - горизонтальная дальность видимости в метрах или километрах. При видимости от 1 до 10 км при отсутствии осадков обычно наблюдается дымка, при ухудшении видимости до 1 км и менее - туман. В сухую погоду видимость может ухудшаться дымом, пылью или мглою.
Явления - указаны атмосферные явления, наблюдавшиеся в срок или в последний час перед сроком; фигурными скобками обозначены явления, наблюдавшиеся между сроками (за 1-3 часа до срока); квадратными скобками обозначены град или гололедные отложения с указанием их диаметра в мм.
Облачность - указаны через наклонную черту общая и нижняя облачность в баллах и высота нижней границы облаков в метрах; квадратными скобками обозначены формы облаков: Ci - перистые, Cs - перисто-слоистые, Cc - перисто-кучевые, Ac - высококучевые, As - высокослоистые, Sc - слоисто-кучевые, Ns - слоисто-дождевые, Cu - кучевые, Cb - кучево-дождевые. Подробнее классификацию облаков см. в Атласе облаков (PDF).
T - Температура воздуха - температура, измеренная на высоте 2 м над землей.
Td - Температура точки росы - температура, при понижении до которой содержащийся в воздухе водяной пар достигнет насыщения.
f - Относительная влажность воздуха - влажноcть воздуха, измеренная на высоте 2 м над землей.
Te - Эффективная температура - температура, которую ощущает одетый по сезону человек в тени. Характеристика душности погоды. При расчете учитывается влияние влажности воздуха и скорости ветра на теплоощущения человека.
Tes - Эффективная температура на солнце - температура, которую ощущает человек, с поправкой на солнечный нагрев. Характеристика знойности погоды. Зависит от высоты солнца над горизонтом, облачности и скорости ветра. Ночью, в пасмурную погоду, а также при ветре 12 м/с и более поправка равна нулю.
P - Атмосферное давление - приведенное к уровню моря атмосферное давление.
Po - Атмосферное давление - измеренное на уровне метеостанции атмосферное давление.
Tmin - Минимальная температура - минимум температуры воздуха на высоте 2 м над землей.
Tmax - Максимальная температура - максимум температуры воздуха на высоте 2 м над землей.
R - Количество осадков - Количество выпавших осадков за период времени, мм. При наведении курсора мыши на число - период времени, за который выпало указанное количество осадков.
R24 - Количество осадков - Количество выпавших осадков за 24 часа, мм.
S - Снежный покров - Высота снежного покрова, см. При наведении курсора мыши на число - состояние снежного покрова и степень покрытия местности в баллах.